Regional Weather Roundup
Issued by NWS Northern Indiana

Home | Current Version | Previous Version | Graphics & Text | Print | Product List | Glossary On
Versions: 1 2 3 4 5 6 7 8 9 10 11 12 13 14 15 16 17 18 19 20 21 22 23 24 25 26 27 28 29 30 31 32 33 34 35 36 37 38 39 40 41 42 43 44 45 46 47 48 49 50
000
ASUS43 KIWX 172300
RWRIWX

KIWX WEATHER ROUNDUP
NATIONAL WEATHER SERVICE NORTHERN INDIANA
700 PM EDT FRI APR 17 2015

NOTE: "FAIR" INDICATES FEW OR NO CLOUDS BELOW 12,000 FEET WITH NO
SIGNIFICANT WEATHER AND/OR OBSTRUCTIONS TO VISIBILITY.

* THESE STATIONS ARE NOT UNDER NWS QUALITY CONTROL. THEY ALSO MAY NOT
  REPORT WEATHER SUCH AS PRECIPITATION OR FOG.

INZ001>027-180000-
NORTHERN INDIANA

CITY           SKY/WX    TMP DP  RH WIND       PRES   REMARKS
GARY*          PTSUNNY   73  36  25 E9        30.01S
SOUTH BEND     SUNNY     73  42  32 NW7       30.02F
ELKHART*       SUNNY     73  37  27 W9        30.02S
GOSHEN         MOSUNNY   72  46  39 NW7       30.01S
ANGOLA*        PTSUNNY   73  45  35 NW8       30.01S
FORT WAYNE     PTSUNNY   74  45  35 W9        30.02S
PERU/GRISSOM   MOSUNNY   73  48  40 W6        30.02S

$$
INZ028>050-180000-
CENTRAL INDIANA

CITY           SKY/WX    TMP DP  RH WIND       PRES   REMARKS
LAFAYETTE      MOSUNNY   73  44  35 SW3       30.02S
KOKOMO*        MOSUNNY   75  45  33 NW3       30.02F
MUNCIE*        PTSUNNY   73  41  31 W5        30.03S
INDIANAPOLIS   PTSUNNY   73  42  32 CALM      30.01F

$$
MIZ043>046-050>051-056>058-064>065-071>073-077>080-180000-
SOUTHWEST LOWER MICHIGAN

CITY           SKY/WX    TMP DP  RH WIND       PRES   REMARKS
BATTLE CREEK   SUNNY     74  39  28 W13       30.02R
BENTON HARBOR  SUNNY     69  43  38 W3        30.02S
COLDWATER*     SUNNY     72  39  30 NW9       30.01S
HILLSDALE*     MOSUNNY   72  40  31 W5        30.01S
HOLLAND        MOSUNNY   71  41  33 W3        30.03S
GRAND RAPIDS   MOSUNNY   72  39  30 W10       30.01S
KALAMAZOO      SUNNY     73  42  32 W9        30.01S
STURGIS*       SUNNY     72  45  37 W8        30.01S
THREE RIVERS*  FAIR      73  44  35 NW9       30.02S

$$
OHZ001>008-015>018-024>025-180000-
NORTHWEST OHIO

CITY           SKY/WX    TMP DP  RH WIND       PRES   REMARKS
DEFIANCE       SUNNY     76  41  28 NW7       30.00
FINDLAY        SUNNY     73  34  23 CALM      30.01S
TOLEDO EXPRESS MOSUNNY   75  37  25 W7        29.99S
TOLEDO METCALF SUNNY     74  38  27 SW8       30.00S
LIMA           MOSUNNY   73  38  27 CALM      30.03S

$$
AND FOR LAKE MICHIGAN COASTAL AND OPEN LAKE BUOY OBSERVATIONS

STATION/POSITION TEMP    WIND        PRES    VSBY  WAVE
                 AIR SEA DIR/SP/G                  HT/PER
                 (F)     (DEG/KT/KT) (MB)    (MI)  (FT/S)
CALUMET HARBOR    59      80/  6/  8   N/A
MICHIGAN CITY     62      30/ 11/ 11   N/A
BURNS HARBOR      60      80/ 10/ 10 1016.6S
SAINT JOSEPH      69     210/  1/  3 1017.3S
MICHIGAN CITY     54 49                N/A           0

$$
&&



USA.gov is the U.S. government's official web portal to all federal, state and local government web resources and services.